Year,Month,Day,Hour,Minute,Value (Times are PST for temperature in C)
2007,08,15,00,00,16.60
2007,08,15,00,01,16.40
2007,08,15,00,02,16.40
2007,08,15,00,03,16.40
2007,08,15,00,04,16.40
2007,08,15,00,05,16.40
2007,08,15,00,06,16.40
2007,08,15,00,07,16.40
2007,08,15,00,08,16.30
2007,08,15,00,09,16.30
2007,08,15,00,10,16.30
2007,08,15,00,11,16.30
2007,08,15,00,12,16.20
2007,08,15,00,13,16.20
2007,08,15,00,14,16.20
2007,08,15,00,15,16.20
2007,08,15,00,16,16.10
2007,08,15,00,17,16.10
2007,08,15,00,18,16.10
2007,08,15,00,19,16.10
2007,08,15,00,20,16.10
2007,08,15,00,21,16.10
2007,08,15,00,22,16.10
2007,08,15,00,23,16.10
2007,08,15,00,24,16.10
2007,08,15,00,25,16.10
2007,08,15,00,26,16.10
2007,08,15,00,27,16.10
2007,08,15,00,28,16.10
2007,08,15,00,29,16.10
2007,08,15,00,30,16.00
2007,08,15,00,31,15.90
2007,08,15,00,32,15.90
2007,08,15,00,33,15.90
2007,08,15,00,34,15.90
2007,08,15,00,35,15.90
2007,08,15,00,36,15.90
2007,08,15,00,37,15.90
2007,08,15,00,38,15.90
2007,08,15,00,39,15.80
2007,08,15,00,40,15.80
2007,08,15,00,41,15.80
2007,08,15,00,42,15.80
2007,08,15,00,43,15.80
2007,08,15,00,44,15.80
2007,08,15,00,45,15.80
2007,08,15,00,46,15.70
2007,08,15,00,47,15.70
2007,08,15,00,48,15.70
2007,08,15,00,49,15.60
2007,08,15,00,50,15.60
2007,08,15,00,51,15.60
2007,08,15,00,52,15.60
2007,08,15,00,53,15.60
2007,08,15,00,54,15.60
2007,08,15,00,55,15.50
2007,08,15,00,56,15.50
2007,08,15,00,57,15.50
2007,08,15,00,58,15.50
2007,08,15,00,59,15.50
2007,08,15,01,00,15.50
2007,08,15,01,01,15.40
2007,08,15,01,02,15.40
2007,08,15,01,03,15.40
2007,08,15,01,04,15.40
2007,08,15,01,05,15.40
2007,08,15,01,06,15.40
2007,08,15,01,07,15.40
2007,08,15,01,08,15.30
2007,08,15,01,09,15.30
2007,08,15,01,10,15.30
2007,08,15,01,11,15.30
2007,08,15,01,12,15.30
2007,08,15,01,13,15.30
2007,08,15,01,14,15.30
2007,08,15,01,15,15.30
2007,08,15,01,16,15.30
2007,08,15,01,17,15.20
2007,08,15,01,18,15.20
2007,08,15,01,19,15.20
2007,08,15,01,20,15.20
2007,08,15,01,21,15.10
2007,08,15,01,22,15.10
2007,08,15,01,23,15.10
2007,08,15,01,24,15.00
2007,08,15,01,25,15.00
2007,08,15,01,26,15.00
2007,08,15,01,27,15.00
2007,08,15,01,28,15.00
2007,08,15,01,29,15.00
2007,08,15,01,30,15.00
2007,08,15,01,31,15.00
2007,08,15,01,32,15.00
2007,08,15,01,33,14.90
2007,08,15,01,34,14.90
2007,08,15,01,35,14.90
2007,08,15,01,36,14.90
2007,08,15,01,37,14.90
2007,08,15,01,38,14.90
2007,08,15,01,39,14.90
2007,08,15,01,40,14.90
2007,08,15,01,41,14.90
2007,08,15,01,42,14.80
2007,08,15,01,43,14.80
2007,08,15,01,44,14.80
2007,08,15,01,45,14.80
2007,08,15,01,46,14.80
2007,08,15,01,47,14.80
2007,08,15,01,48,14.80
2007,08,15,01,49,14.80
2007,08,15,01,50,14.80
2007,08,15,01,51,14.80
2007,08,15,01,52,14.80
2007,08,15,01,53,14.80
2007,08,15,01,54,14.80
2007,08,15,01,55,14.80
2007,08,15,01,56,14.80
2007,08,15,01,57,14.80
2007,08,15,01,58,14.80
2007,08,15,01,59,14.80
2007,08,15,02,00,14.80
2007,08,15,02,01,14.80
2007,08,15,02,02,14.80
2007,08,15,02,03,14.80
2007,08,15,02,04,14.80
2007,08,15,02,05,14.80
2007,08,15,02,06,14.80
2007,08,15,02,07,14.80
2007,08,15,02,08,14.80
2007,08,15,02,09,14.80
2007,08,15,02,10,14.80
2007,08,15,02,11,14.80
2007,08,15,02,12,14.80
2007,08,15,02,13,14.80
2007,08,15,02,14,14.80
2007,08,15,02,15,14.80
2007,08,15,02,16,14.80
2007,08,15,02,17,14.80
2007,08,15,02,18,14.80
2007,08,15,02,19,14.80
2007,08,15,02,20,14.80
2007,08,15,02,21,14.70
2007,08,15,02,22,14.70
2007,08,15,02,23,14.70
2007,08,15,02,24,14.70
2007,08,15,02,25,14.70
2007,08,15,02,26,14.70
2007,08,15,02,27,14.60
2007,08,15,02,28,14.60
2007,08,15,02,29,14.60
2007,08,15,02,30,14.60
2007,08,15,02,31,14.50
2007,08,15,02,32,14.50
2007,08,15,02,33,14.50
2007,08,15,02,34,14.50
2007,08,15,02,35,14.50
2007,08,15,02,36,14.40
2007,08,15,02,37,14.40
2007,08,15,02,38,14.40
2007,08,15,02,39,14.40
2007,08,15,02,40,14.40
2007,08,15,02,41,14.40
2007,08,15,02,42,14.40
2007,08,15,02,43,14.30
2007,08,15,02,44,14.30
2007,08,15,02,45,14.30
2007,08,15,02,46,14.30
2007,08,15,02,47,14.30
2007,08,15,02,48,14.30
2007,08,15,02,49,14.30
2007,08,15,02,50,14.40
2007,08,15,02,51,14.40
2007,08,15,02,52,14.40
2007,08,15,02,53,14.40
2007,08,15,02,54,14.30
2007,08,15,02,55,14.30
2007,08,15,02,56,14.30
2007,08,15,02,57,14.30
2007,08,15,02,58,14.30
2007,08,15,02,59,14.20
2007,08,15,03,00,14.20
2007,08,15,03,01,14.20
2007,08,15,03,02,14.30
2007,08,15,03,03,14.30
2007,08,15,03,04,14.30
2007,08,15,03,05,14.30
2007,08,15,03,06,14.30
2007,08,15,03,07,14.30
2007,08,15,03,08,14.40
2007,08,15,03,09,14.40
2007,08,15,03,10,14.40
2007,08,15,03,11,14.40
2007,08,15,03,12,14.40
2007,08,15,03,13,14.40
2007,08,15,03,14,14.40
2007,08,15,03,15,14.40
2007,08,15,03,16,14.40
2007,08,15,03,17,14.50
2007,08,15,03,18,14.50
2007,08,15,03,19,14.50
2007,08,15,03,20,14.50
2007,08,15,03,21,14.50
2007,08,15,03,22,14.50
2007,08,15,03,23,14.40
2007,08,15,03,24,14.40
2007,08,15,03,25,14.40
2007,08,15,03,26,14.40
2007,08,15,03,27,14.30
2007,08,15,03,28,14.30
2007,08,15,03,29,14.30
2007,08,15,03,30,14.20
2007,08,15,03,31,14.20
2007,08,15,03,32,14.20
2007,08,15,03,33,14.20
2007,08,15,03,34,14.20
2007,08,15,03,35,14.20
2007,08,15,03,36,14.20
2007,08,15,03,37,14.20
2007,08,15,03,38,14.20
2007,08,15,03,39,14.20
2007,08,15,03,40,14.20
2007,08,15,03,41,14.20
2007,08,15,03,42,14.10
2007,08,15,03,43,14.10
2007,08,15,03,44,14.10
2007,08,15,03,45,14.10
2007,08,15,03,46,14.00
2007,08,15,03,47,14.00
2007,08,15,03,48,14.00
2007,08,15,03,49,14.00
2007,08,15,03,50,14.00
2007,08,15,03,51,14.00
2007,08,15,03,52,13.90
2007,08,15,03,53,13.90
2007,08,15,03,54,13.90
2007,08,15,03,55,13.90
2007,08,15,03,56,13.90
2007,08,15,03,57,13.90
2007,08,15,03,58,13.90
2007,08,15,03,59,13.90
2007,08,15,04,00,13.90
2007,08,15,04,01,13.90
2007,08,15,04,02,13.90
2007,08,15,04,03,13.90
2007,08,15,04,04,13.90
2007,08,15,04,05,13.90
2007,08,15,04,06,13.80
2007,08,15,04,07,13.80
2007,08,15,04,08,13.80
2007,08,15,04,09,13.80
2007,08,15,04,10,13.80
2007,08,15,04,11,13.80
2007,08,15,04,12,13.70
2007,08,15,04,13,13.70
2007,08,15,04,14,13.70
2007,08,15,04,15,13.70
2007,08,15,04,16,13.70
2007,08,15,04,17,13.70
2007,08,15,04,18,13.70
2007,08,15,04,19,13.70
2007,08,15,04,20,13.60
2007,08,15,04,21,13.60
2007,08,15,04,22,13.60
2007,08,15,04,23,13.60
2007,08,15,04,24,13.60
2007,08,15,04,25,13.50
2007,08,15,04,26,13.50
2007,08,15,04,27,13.50
2007,08,15,04,28,13.50
2007,08,15,04,29,13.50
2007,08,15,04,30,13.40
2007,08,15,04,31,13.40
2007,08,15,04,32,13.40
2007,08,15,04,33,13.40
2007,08,15,04,34,13.40
2007,08,15,04,35,13.40
2007,08,15,04,36,13.40
2007,08,15,04,37,13.40
2007,08,15,04,38,13.40
2007,08,15,04,39,13.40
2007,08,15,04,40,13.40
2007,08,15,04,41,13.30
2007,08,15,04,42,13.30
2007,08,15,04,43,13.30
2007,08,15,04,44,13.30
2007,08,15,04,45,13.30
2007,08,15,04,46,13.30
2007,08,15,04,47,13.30
2007,08,15,04,48,13.30
2007,08,15,04,49,13.40
2007,08,15,04,50,13.40
2007,08,15,04,51,13.40
2007,08,15,04,52,13.50
2007,08,15,04,53,13.50
2007,08,15,04,54,13.50
2007,08,15,04,55,13.50
2007,08,15,04,56,13.60
2007,08,15,04,57,13.60
2007,08,15,04,58,13.60
2007,08,15,04,59,13.60
2007,08,15,05,00,13.50
2007,08,15,05,01,13.50
2007,08,15,05,02,13.50
2007,08,15,05,03,13.50
2007,08,15,05,04,13.50
2007,08,15,05,05,13.40
2007,08,15,05,06,13.40
2007,08,15,05,07,13.40
2007,08,15,05,08,13.40
2007,08,15,05,09,13.30
2007,08,15,05,10,13.30
2007,08,15,05,11,13.30
2007,08,15,05,12,13.30
2007,08,15,05,13,13.30
2007,08,15,05,14,13.30
2007,08,15,05,15,13.20
2007,08,15,05,16,13.20
2007,08,15,05,17,13.20
2007,08,15,05,18,13.20
2007,08,15,05,19,13.20
2007,08,15,05,20,13.20
2007,08,15,05,21,13.20
2007,08,15,05,22,13.20
2007,08,15,05,23,13.20
2007,08,15,05,24,13.10
2007,08,15,05,25,13.10
2007,08,15,05,26,13.10
2007,08,15,05,27,13.20
2007,08,15,05,28,13.20
2007,08,15,05,29,13.20
2007,08,15,05,30,13.20
2007,08,15,05,31,13.20
2007,08,15,05,32,13.20
2007,08,15,05,33,13.20
2007,08,15,05,34,13.20
2007,08,15,05,35,13.20
2007,08,15,05,36,13.10
2007,08,15,05,37,13.10
2007,08,15,05,38,13.10
2007,08,15,05,39,13.10
2007,08,15,05,40,13.20
2007,08,15,05,41,13.20
2007,08,15,05,42,13.20
2007,08,15,05,43,13.20
2007,08,15,05,44,13.20
2007,08,15,05,45,13.20
2007,08,15,05,46,13.20
2007,08,15,05,47,13.20
2007,08,15,05,48,13.20
2007,08,15,05,49,13.20
2007,08,15,05,50,13.10
2007,08,15,05,51,13.10
2007,08,15,05,52,13.10
2007,08,15,05,53,13.10
2007,08,15,05,54,13.10
2007,08,15,05,55,13.10
2007,08,15,05,56,13.10
2007,08,15,05,57,13.10
2007,08,15,05,58,13.10
2007,08,15,05,59,13.10
2007,08,15,06,00,13.10
2007,08,15,06,01,13.10
2007,08,15,06,02,13.10
2007,08,15,06,03,13.20
2007,08,15,06,04,13.20
2007,08,15,06,05,13.20
2007,08,15,06,06,13.20
2007,08,15,06,07,13.20
2007,08,15,06,08,13.30
2007,08,15,06,09,13.30
2007,08,15,06,10,13.30
2007,08,15,06,11,13.30
2007,08,15,06,12,13.40
2007,08,15,06,13,13.40
2007,08,15,06,14,13.50
2007,08,15,06,15,13.50
2007,08,15,06,16,13.50
2007,08,15,06,17,13.50
2007,08,15,06,18,13.50
2007,08,15,06,19,13.50
2007,08,15,06,20,13.50
2007,08,15,06,21,13.40
2007,08,15,06,22,13.40
2007,08,15,06,23,13.40
2007,08,15,06,24,13.30
2007,08,15,06,25,13.30
2007,08,15,06,26,13.30
2007,08,15,06,27,13.30
2007,08,15,06,28,13.30
2007,08,15,06,29,13.30
2007,08,15,06,30,13.30
2007,08,15,06,31,13.30
2007,08,15,06,32,13.30
2007,08,15,06,33,13.30
2007,08,15,06,34,13.30
2007,08,15,06,35,13.30
2007,08,15,06,36,13.30
2007,08,15,06,37,13.30
2007,08,15,06,38,13.30
2007,08,15,06,39,13.40
2007,08,15,06,40,13.40
2007,08,15,06,41,13.40
2007,08,15,06,42,13.40
2007,08,15,06,43,13.40
2007,08,15,06,44,13.40
2007,08,15,06,45,13.40
2007,08,15,06,46,13.40
2007,08,15,06,47,13.40
2007,08,15,06,48,13.40
2007,08,15,06,49,13.50
2007,08,15,06,50,13.50
2007,08,15,06,51,13.50
2007,08,15,06,52,13.60
2007,08,15,06,53,13.60
2007,08,15,06,54,13.70
2007,08,15,06,55,13.70
2007,08,15,06,56,13.70
2007,08,15,06,57,13.70
2007,08,15,06,58,13.70
2007,08,15,06,59,13.80
2007,08,15,07,00,13.80
2007,08,15,07,01,13.80
2007,08,15,07,02,13.90
2007,08,15,07,03,13.90
2007,08,15,07,04,14.00
2007,08,15,07,05,14.00
2007,08,15,07,06,14.00
2007,08,15,07,07,14.10
2007,08,15,07,08,14.10
2007,08,15,07,09,14.20
2007,08,15,07,10,14.20
2007,08,15,07,11,14.20
2007,08,15,07,12,14.20
2007,08,15,07,13,14.30
2007,08,15,07,14,14.30
2007,08,15,07,15,14.30
2007,08,15,07,16,14.40
2007,08,15,07,17,14.50
2007,08,15,07,18,14.50
2007,08,15,07,19,14.50
2007,08,15,07,20,14.60
2007,08,15,07,21,14.60
2007,08,15,07,22,14.70
2007,08,15,07,23,14.70
2007,08,15,07,24,14.80
2007,08,15,07,25,14.90
2007,08,15,07,26,15.00
2007,08,15,07,27,15.10
2007,08,15,07,28,15.20
2007,08,15,07,29,15.20
2007,08,15,07,30,15.30
2007,08,15,07,31,15.40
2007,08,15,07,32,15.50
2007,08,15,07,33,15.60
2007,08,15,07,34,15.60
2007,08,15,07,35,15.70
2007,08,15,07,36,15.70
2007,08,15,07,37,15.80
2007,08,15,07,38,15.90
2007,08,15,07,39,15.90
2007,08,15,07,40,16.10
2007,08,15,07,41,16.10
2007,08,15,07,42,16.20
2007,08,15,07,43,16.30
2007,08,15,07,44,16.40
2007,08,15,07,45,16.40
2007,08,15,07,46,16.60
2007,08,15,07,47,16.70
2007,08,15,07,48,16.70
2007,08,15,07,49,16.80
2007,08,15,07,50,16.90
2007,08,15,07,51,17.00
2007,08,15,07,52,17.00
2007,08,15,07,53,17.20
2007,08,15,07,54,17.30
2007,08,15,07,55,17.30
2007,08,15,07,56,17.40
2007,08,15,07,57,17.50
2007,08,15,07,58,17.50
2007,08,15,07,59,17.70
2007,08,15,08,00,17.80
2007,08,15,08,01,17.80
2007,08,15,08,02,17.90
2007,08,15,08,03,18.00
2007,08,15,08,04,18.10
2007,08,15,08,05,18.20
2007,08,15,08,06,18.30
2007,08,15,08,07,18.30
2007,08,15,08,08,18.40
2007,08,15,08,09,18.60
2007,08,15,08,10,18.70
2007,08,15,08,11,18.80
2007,08,15,08,12,18.90
2007,08,15,08,13,19.00
2007,08,15,08,14,19.10
2007,08,15,08,15,19.20
2007,08,15,08,16,19.20
2007,08,15,08,17,19.40
2007,08,15,08,18,19.50
2007,08,15,08,19,19.60
2007,08,15,08,20,19.70
2007,08,15,08,21,19.80
2007,08,15,08,22,19.90
2007,08,15,08,23,20.10
2007,08,15,08,24,20.20
2007,08,15,08,25,20.20
2007,08,15,08,26,20.30
2007,08,15,08,27,20.40
2007,08,15,08,28,20.50
2007,08,15,08,29,20.60
2007,08,15,08,30,20.70
2007,08,15,08,31,20.80
2007,08,15,08,32,20.90
2007,08,15,08,33,21.00
2007,08,15,08,34,21.00
2007,08,15,08,35,21.20
2007,08,15,08,36,21.30
2007,08,15,08,37,21.30
2007,08,15,08,38,21.30
2007,08,15,08,39,21.30
2007,08,15,08,40,21.30
2007,08,15,08,41,21.40
2007,08,15,08,42,21.50
2007,08,15,08,43,21.60
2007,08,15,08,44,21.60
2007,08,15,08,45,21.60
2007,08,15,08,46,21.60
2007,08,15,08,47,21.60
2007,08,15,08,48,21.60
2007,08,15,08,49,21.60
2007,08,15,08,50,21.60
2007,08,15,08,51,21.60
2007,08,15,08,52,21.60
2007,08,15,08,53,21.70
2007,08,15,08,54,21.70
2007,08,15,08,55,21.80
2007,08,15,08,56,21.90
2007,08,15,08,57,21.90
2007,08,15,08,58,22.00
2007,08,15,08,59,22.00
2007,08,15,09,00,22.00
2007,08,15,09,01,22.00
2007,08,15,09,02,22.00
2007,08,15,09,03,22.00
2007,08,15,09,04,22.10
2007,08,15,09,05,22.20
2007,08,15,09,06,22.30
2007,08,15,09,07,22.30
2007,08,15,09,08,22.40
2007,08,15,09,09,22.40
2007,08,15,09,10,22.50
2007,08,15,09,11,22.60
2007,08,15,09,12,22.60
2007,08,15,09,13,22.60
2007,08,15,09,14,22.70
2007,08,15,09,15,22.70
2007,08,15,09,16,22.80
2007,08,15,09,17,22.80
2007,08,15,09,18,22.90
2007,08,15,09,19,22.90
2007,08,15,09,20,22.90
2007,08,15,09,21,23.00
2007,08,15,09,22,23.10
2007,08,15,09,23,23.10
2007,08,15,09,24,23.10
2007,08,15,09,25,23.20
2007,08,15,09,26,23.30
2007,08,15,09,27,23.30
2007,08,15,09,28,23.30
2007,08,15,09,29,23.30
2007,08,15,09,30,23.40
2007,08,15,09,31,23.40
2007,08,15,09,32,23.50
2007,08,15,09,33,23.60
2007,08,15,09,34,23.60
2007,08,15,09,35,23.60
2007,08,15,09,36,23.70
2007,08,15,09,37,23.70
2007,08,15,09,38,23.70
2007,08,15,09,39,23.70
2007,08,15,09,40,23.50
2007,08,15,09,41,23.30
2007,08,15,09,42,23.10
2007,08,15,09,43,23.00
2007,08,15,09,44,22.90
2007,08,15,09,45,22.90
2007,08,15,09,46,22.90
2007,08,15,09,47,22.90
2007,08,15,09,48,22.90
2007,08,15,09,49,22.90
2007,08,15,09,50,23.00
2007,08,15,09,51,23.10
2007,08,15,09,52,22.90
2007,08,15,09,53,22.40
2007,08,15,09,54,22.10
2007,08,15,09,55,21.80
2007,08,15,09,56,21.60
2007,08,15,09,57,21.40
2007,08,15,09,58,21.30
2007,08,15,09,59,21.30
2007,08,15,10,00,21.30
2007,08,15,10,01,21.30
2007,08,15,10,02,21.30
2007,08,15,10,03,21.40
2007,08,15,10,04,21.40
2007,08,15,10,05,21.50
2007,08,15,10,06,21.60
2007,08,15,10,07,21.60
2007,08,15,10,08,21.60
2007,08,15,10,09,21.60
2007,08,15,10,10,21.60
2007,08,15,10,11,21.60
2007,08,15,10,12,21.40
2007,08,15,10,13,21.30
2007,08,15,10,14,21.20
2007,08,15,10,15,21.20
2007,08,15,10,16,21.20
2007,08,15,10,17,21.10
2007,08,15,10,18,21.10
2007,08,15,10,19,21.20
2007,08,15,10,20,21.10
2007,08,15,10,21,21.00
2007,08,15,10,22,20.90
2007,08,15,10,23,20.70
2007,08,15,10,24,20.60
2007,08,15,10,25,20.50
2007,08,15,10,26,20.40
2007,08,15,10,27,20.40
2007,08,15,10,28,20.50
2007,08,15,10,29,20.50
2007,08,15,10,30,20.50
2007,08,15,10,31,20.60
2007,08,15,10,32,20.70
2007,08,15,10,33,20.80
2007,08,15,10,34,20.80
2007,08,15,10,35,20.70
2007,08,15,10,36,20.70
2007,08,15,10,37,20.80
2007,08,15,10,38,20.90
2007,08,15,10,39,21.00
2007,08,15,10,40,21.00
2007,08,15,10,41,21.20
2007,08,15,10,42,21.30
2007,08,15,10,43,21.40
2007,08,15,10,44,21.60
2007,08,15,10,45,21.60
2007,08,15,10,46,21.50
2007,08,15,10,47,21.40
2007,08,15,10,48,21.50
2007,08,15,10,49,21.60
2007,08,15,10,50,21.70
2007,08,15,10,51,21.90
2007,08,15,10,52,22.00
2007,08,15,10,53,22.10
2007,08,15,10,54,22.20
2007,08,15,10,55,22.20
2007,08,15,10,56,22.30
2007,08,15,10,57,22.40
2007,08,15,10,58,22.40
2007,08,15,10,59,22.40
2007,08,15,11,00,22.40
2007,08,15,11,01,22.40
2007,08,15,11,02,22.50
2007,08,15,11,03,22.60
2007,08,15,11,04,22.70
2007,08,15,11,05,22.80
2007,08,15,11,06,22.80
2007,08,15,11,07,22.70
2007,08,15,11,08,22.70
2007,08,15,11,09,22.60
2007,08,15,11,10,22.50
2007,08,15,11,11,22.40
2007,08,15,11,12,22.30
2007,08,15,11,13,22.20
2007,08,15,11,14,22.10
2007,08,15,11,15,22.00
2007,08,15,11,16,21.90
2007,08,15,11,17,21.80
2007,08,15,11,18,21.80
2007,08,15,11,19,21.80
2007,08,15,11,20,21.80
2007,08,15,11,21,21.90
2007,08,15,11,22,22.00
2007,08,15,11,23,22.10
2007,08,15,11,24,22.20
2007,08,15,11,25,22.30
2007,08,15,11,26,22.50
2007,08,15,11,27,22.50
2007,08,15,11,28,22.40
2007,08,15,11,29,22.50
2007,08,15,11,30,22.40
2007,08,15,11,31,22.30
2007,08,15,11,32,22.20
2007,08,15,11,33,22.10
2007,08,15,11,34,22.00
2007,08,15,11,35,21.90
2007,08,15,11,36,21.80
2007,08,15,11,37,21.60
2007,08,15,11,38,21.60
2007,08,15,11,39,21.60
2007,08,15,11,40,21.50
2007,08,15,11,41,21.40
2007,08,15,11,42,21.30
2007,08,15,11,43,21.40
2007,08,15,11,44,21.50
2007,08,15,11,45,21.60
2007,08,15,11,46,21.80
2007,08,15,11,47,21.90
2007,08,15,11,48,22.10
2007,08,15,11,49,22.20
2007,08,15,11,50,22.30
2007,08,15,11,51,22.50
2007,08,15,11,52,22.60
2007,08,15,11,53,22.70
2007,08,15,11,54,22.80
2007,08,15,11,55,22.70
2007,08,15,11,56,22.70
2007,08,15,11,57,22.70
2007,08,15,11,58,22.50
2007,08,15,11,59,22.50
2007,08,15,12,00,22.50
2007,08,15,12,01,22.40
2007,08,15,12,02,22.40
2007,08,15,12,03,22.50
2007,08,15,12,04,22.40
2007,08,15,12,05,22.40
2007,08,15,12,06,22.50
2007,08,15,12,07,22.60
2007,08,15,12,08,22.80
2007,08,15,12,09,22.90
2007,08,15,12,10,22.90
2007,08,15,12,11,23.10
2007,08,15,12,12,23.10
2007,08,15,12,13,23.20
2007,08,15,12,14,23.20
2007,08,15,12,15,23.30
2007,08,15,12,16,23.30
2007,08,15,12,17,23.30
2007,08,15,12,18,23.30
2007,08,15,12,19,23.30
2007,08,15,12,20,23.50
2007,08,15,12,21,23.60
2007,08,15,12,22,23.70
2007,08,15,12,23,23.90
2007,08,15,12,24,23.90
2007,08,15,12,25,23.80
2007,08,15,12,26,23.90
2007,08,15,12,27,23.90
2007,08,15,12,28,24.00
2007,08,15,12,29,24.10
2007,08,15,12,30,24.10
2007,08,15,12,31,24.10
2007,08,15,12,32,24.20
2007,08,15,12,33,24.20
2007,08,15,12,34,24.30
2007,08,15,12,35,24.20
2007,08,15,12,36,24.20
2007,08,15,12,37,24.10
2007,08,15,12,38,24.10
2007,08,15,12,39,24.00
2007,08,15,12,40,24.00
2007,08,15,12,41,24.10
2007,08,15,12,42,24.10
2007,08,15,12,43,24.10
2007,08,15,12,44,24.10
2007,08,15,12,45,24.00
2007,08,15,12,46,23.90
2007,08,15,12,47,23.80
2007,08,15,12,48,23.70
2007,08,15,12,49,23.70
2007,08,15,12,50,23.80
2007,08,15,12,51,23.80
2007,08,15,12,52,23.70
2007,08,15,12,53,23.60
2007,08,15,12,54,23.50
2007,08,15,12,55,23.50
2007,08,15,12,56,23.40
2007,08,15,12,57,23.50
2007,08,15,12,58,23.70
2007,08,15,12,59,23.80
2007,08,15,13,00,24.00
2007,08,15,13,01,24.10
2007,08,15,13,02,24.10
2007,08,15,13,03,24.20
2007,08,15,13,04,24.20
2007,08,15,13,05,24.10
2007,08,15,13,06,23.90
2007,08,15,13,07,23.80
2007,08,15,13,08,23.60
2007,08,15,13,09,23.50
2007,08,15,13,10,23.30
2007,08,15,13,11,23.10
2007,08,15,13,12,22.80
2007,08,15,13,13,22.60
2007,08,15,13,14,22.50
2007,08,15,13,15,22.50
2007,08,15,13,16,22.50
2007,08,15,13,17,22.30
2007,08,15,13,18,22.10
2007,08,15,13,19,22.10
2007,08,15,13,20,22.10
2007,08,15,13,21,22.10
2007,08,15,13,22,22.10
2007,08,15,13,23,22.30
2007,08,15,13,24,22.30
2007,08,15,13,25,22.50
2007,08,15,13,26,22.60
2007,08,15,13,27,22.70
2007,08,15,13,28,22.80
2007,08,15,13,29,22.80
2007,08,15,13,30,22.70
2007,08,15,13,31,22.70
2007,08,15,13,32,22.80
2007,08,15,13,33,22.90
2007,08,15,13,34,22.90
2007,08,15,13,35,23.10
2007,08,15,13,36,23.10
2007,08,15,13,37,23.10
2007,08,15,13,38,23.20
2007,08,15,13,39,23.30
2007,08,15,13,40,23.50
2007,08,15,13,41,23.60
2007,08,15,13,42,23.60
2007,08,15,13,43,23.50
2007,08,15,13,44,23.30
2007,08,15,13,45,23.30
2007,08,15,13,46,23.30
2007,08,15,13,47,23.30
2007,08,15,13,48,23.30
2007,08,15,13,49,23.30
2007,08,15,13,50,23.30
2007,08,15,13,51,23.30
2007,08,15,13,52,23.40
2007,08,15,13,53,23.50
2007,08,15,13,54,23.60
2007,08,15,13,55,23.60
2007,08,15,13,56,23.70
2007,08,15,13,57,23.70
2007,08,15,13,58,23.60
2007,08,15,13,59,23.60
2007,08,15,14,00,23.60
2007,08,15,14,01,23.60
2007,08,15,14,02,23.50
2007,08,15,14,03,23.40
2007,08,15,14,04,23.60
2007,08,15,14,05,23.70
2007,08,15,14,06,23.70
2007,08,15,14,07,23.70
2007,08,15,14,08,23.70
2007,08,15,14,09,23.70
2007,08,15,14,10,23.70
2007,08,15,14,11,23.70
2007,08,15,14,12,23.70
2007,08,15,14,13,23.70
2007,08,15,14,14,23.80
2007,08,15,14,15,24.00
2007,08,15,14,16,24.10
2007,08,15,14,17,24.20
2007,08,15,14,18,24.40
2007,08,15,14,19,24.40
2007,08,15,14,20,24.40
2007,08,15,14,21,24.40
2007,08,15,14,22,24.50
2007,08,15,14,23,24.60
2007,08,15,14,24,24.60
2007,08,15,14,25,24.60
2007,08,15,14,26,24.70
2007,08,15,14,27,24.70
2007,08,15,14,28,24.70
2007,08,15,14,29,24.60
2007,08,15,14,30,24.60
2007,08,15,14,31,24.60
2007,08,15,14,32,24.70
2007,08,15,14,33,24.70
2007,08,15,14,34,24.70
2007,08,15,14,35,24.50
2007,08,15,14,36,24.50
2007,08,15,14,37,24.50
2007,08,15,14,38,24.50
2007,08,15,14,39,24.60
2007,08,15,14,40,24.60
2007,08,15,14,41,24.50
2007,08,15,14,42,24.40
2007,08,15,14,43,24.50
2007,08,15,14,44,24.60
2007,08,15,14,45,24.70
2007,08,15,14,46,24.70
2007,08,15,14,47,24.60
2007,08,15,14,48,24.60
2007,08,15,14,49,24.60
2007,08,15,14,50,24.60
2007,08,15,14,51,24.80
2007,08,15,14,52,24.90
2007,08,15,14,53,24.90
2007,08,15,14,54,24.80
2007,08,15,14,55,24.70
2007,08,15,14,56,24.70
2007,08,15,14,57,24.60
2007,08,15,14,58,24.60
2007,08,15,14,59,24.70
2007,08,15,15,00,24.70
2007,08,15,15,01,24.70
2007,08,15,15,02,24.70
2007,08,15,15,03,24.80
2007,08,15,15,04,24.80
2007,08,15,15,05,24.90
2007,08,15,15,06,24.90
2007,08,15,15,07,25.00
2007,08,15,15,08,24.90
2007,08,15,15,09,24.90
2007,08,15,15,10,25.00
2007,08,15,15,11,25.00
2007,08,15,15,12,25.00
2007,08,15,15,13,24.90
2007,08,15,15,14,24.80
2007,08,15,15,15,24.80
2007,08,15,15,16,24.80
2007,08,15,15,17,24.90
2007,08,15,15,18,25.00
2007,08,15,15,19,24.90
2007,08,15,15,20,24.80
2007,08,15,15,21,24.80
2007,08,15,15,22,24.70
2007,08,15,15,23,24.70
2007,08,15,15,24,24.80
2007,08,15,15,25,24.70
2007,08,15,15,26,24.60
2007,08,15,15,27,24.50
2007,08,15,15,28,24.50
2007,08,15,15,29,24.50
2007,08,15,15,30,24.50
2007,08,15,15,31,24.60
2007,08,15,15,32,24.60
2007,08,15,15,33,24.70
2007,08,15,15,34,24.80
2007,08,15,15,35,24.90
2007,08,15,15,36,25.00
2007,08,15,15,37,25.10
2007,08,15,15,38,25.20
2007,08,15,15,39,25.20
2007,08,15,15,40,25.20
2007,08,15,15,41,25.30
2007,08,15,15,42,25.30
2007,08,15,15,43,25.30
2007,08,15,15,44,25.40
2007,08,15,15,45,25.50
2007,08,15,15,46,25.50
2007,08,15,15,47,25.40
2007,08,15,15,48,25.40
2007,08,15,15,49,25.30
2007,08,15,15,50,25.40
2007,08,15,15,51,25.40
2007,08,15,15,52,25.50
2007,08,15,15,53,25.50
2007,08,15,15,54,25.60
2007,08,15,15,55,25.70
2007,08,15,15,56,25.80
2007,08,15,15,57,25.80
2007,08,15,15,58,25.70
2007,08,15,15,59,25.80
2007,08,15,16,00,25.80
2007,08,15,16,01,25.80
2007,08,15,16,02,25.90
2007,08,15,16,03,26.00
2007,08,15,16,04,26.10
2007,08,15,16,05,26.20
2007,08,15,16,06,26.20
2007,08,15,16,07,26.20
2007,08,15,16,08,26.20
2007,08,15,16,09,26.20
2007,08,15,16,10,26.40
2007,08,15,16,11,26.50
2007,08,15,16,12,26.60
2007,08,15,16,13,26.70
2007,08,15,16,14,26.80
2007,08,15,16,15,26.90
2007,08,15,16,16,27.10
2007,08,15,16,17,27.20
2007,08,15,16,18,27.20
2007,08,15,16,19,27.30
2007,08,15,16,20,27.30
2007,08,15,16,21,27.30
2007,08,15,16,22,27.30
2007,08,15,16,23,27.20
2007,08,15,16,24,27.10
2007,08,15,16,25,27.00
2007,08,15,16,26,26.90
2007,08,15,16,27,26.90
2007,08,15,16,28,26.90
2007,08,15,16,29,26.90
2007,08,15,16,30,27.10
2007,08,15,16,31,27.20
2007,08,15,16,32,27.30
2007,08,15,16,33,27.40
2007,08,15,16,34,27.60
2007,08,15,16,35,27.80
2007,08,15,16,36,27.90
2007,08,15,16,37,28.00
2007,08,15,16,38,28.00
2007,08,15,16,39,27.80
2007,08,15,16,40,27.70
2007,08,15,16,41,27.60
2007,08,15,16,42,27.50
2007,08,15,16,43,27.50
2007,08,15,16,44,27.50
2007,08,15,16,45,27.40
2007,08,15,16,46,27.50
2007,08,15,16,47,27.60
2007,08,15,16,48,27.80
2007,08,15,16,49,28.00
2007,08,15,16,50,28.10
2007,08,15,16,51,28.10
2007,08,15,16,52,28.10
2007,08,15,16,53,28.10
2007,08,15,16,54,28.20
2007,08,15,16,55,28.30
2007,08,15,16,56,28.40
2007,08,15,16,57,28.60
2007,08,15,16,58,28.60
2007,08,15,16,59,28.70
2007,08,15,17,00,28.80
2007,08,15,17,01,28.90
2007,08,15,17,02,28.90
2007,08,15,17,03,28.80
2007,08,15,17,04,28.80
2007,08,15,17,05,28.70
2007,08,15,17,06,28.60
2007,08,15,17,07,28.60
2007,08,15,17,08,28.60
2007,08,15,17,09,28.60
2007,08,15,17,10,28.70
2007,08,15,17,11,28.80
2007,08,15,17,12,28.80
2007,08,15,17,13,28.90
2007,08,15,17,14,28.90
2007,08,15,17,15,28.90
2007,08,15,17,16,28.80
2007,08,15,17,17,28.70
2007,08,15,17,18,28.70
2007,08,15,17,19,28.80